Lid_Strength_Index
10 10 8 8 8 7 8 8 8 7 6 3 1 1 1 2 2 2 3 4 4 4
10 10 9 9 8 9 8 8 8 7 6 5 3 2 1 2 2 3 3 3 3 3
12 11 10 10 9 10 9 8 8 7 7 6 4 3 1 2 2 2 3 3 3 3
12 12 12 11 10 10 10 9 9 8 7 6 6 4 2 2 2 3 3 3 4 4
12 12 12 11 11 10 10 9 9 8 8 7 7 5 3 4 3 4 5 5 5 6
11 11 13 12 12 12 10 9 9 9 8 8 7 6 6 6 6 6 6 6 6 7
10 10 11 11 12 12 11 11 10 9 9 9 8 8 8 8 9 10 10 10 9 8
10 10 10 10 10 11 12 12 11 11 10 10 10 10 9 10 10 11 12 11 11 11
11 11 11 10 10 10 11 11 11 11 10 10 10 10 10 10 10 11 11 12 12 12
12 12 12 11 11 11 11 11 11 11 11 11 10 9 9 10 10 11 12 13 13 13
13 13 13 13 12 12 11 11 12 12 11 11 10 10 10 11 11 12 13 14 14 14
14 14 14 13 13 13 12 12 12 12 12 12 11 10 11 12 13 14 14 14 14 14
15 15 15 15 15 15 14 14 14 13 13 13 13 11 11 12 14 14 15 14 14 13
15 15 15 15 15 16 15 16 17 17 16 15 14 13 11 12 14 15 16 16 16 15